owner,sensor,date,latitude,longitude,vertical_datum,sea_water_practical_salinity,qcFlag 
SCCF RECON,ioos:station:SCCF:11:1,2017-04-01T00:00:00Z,26.4679,-82.0631,1.89,35.13,1111122 
SCCF RECON,ioos:station:SCCF:11:1,2017-04-01T01:00:00Z,26.4679,-82.0631,1.73,35.1,1111122 
SCCF RECON,ioos:station:SCCF:11:1,2017-04-01T02:00:00Z,26.4679,-82.0631,1.59,35.06,1111122 
SCCF RECON,ioos:station:SCCF:11:1,2017-04-01T03:00:00Z,26.4679,-82.0631,1.49,35.05,1111122 
SCCF RECON,ioos:station:SCCF:11:1,2017-04-01T04:00:00Z,26.4679,-82.0631,1.46,34.77,1111122 
SCCF RECON,ioos:station:SCCF:11:1,2017-04-01T05:00:00Z,26.4679,-82.0631,1.539,35.15,1111122 
SCCF RECON,ioos:station:SCCF:11:1,2017-04-01T06:00:00Z,26.4679,-82.0631,1.68,35.07,1111122 
SCCF RECON,ioos:station:SCCF:11:1,2017-04-01T07:00:00Z,26.4679,-82.0631,1.81,35.11,1111122 
SCCF RECON,ioos:station:SCCF:11:1,2017-04-01T08:00:00Z,26.4679,-82.0631,1.91,35.12,1111122 
SCCF RECON,ioos:station:SCCF:11:1,2017-04-01T09:00:00Z,26.4679,-82.0631,1.98,35.14,1111122 
SCCF RECON,ioos:station:SCCF:11:1,2017-04-01T10:00:00Z,26.4679,-82.0631,2.0,35.17,1111122 
SCCF RECON,ioos:station:SCCF:11:1,2017-04-01T11:00:00Z,26.4679,-82.0631,1.97,35.14,1111122 
SCCF RECON,ioos:station:SCCF:11:1,2017-04-01T12:00:00Z,26.4679,-82.0631,1.88,35.05,1111122 
SCCF RECON,ioos:station:SCCF:11:1,2017-04-01T13:00:00Z,26.4679,-82.0631,1.82,35.04,1111122 
SCCF RECON,ioos:station:SCCF:11:1,2017-04-01T14:00:00Z,26.4679,-82.0631,1.772,35.02,1111122 
SCCF RECON,ioos:station:SCCF:11:1,2017-04-01T15:00:00Z,26.4679,-82.0631,1.74,35.07,1111122 
SCCF RECON,ioos:station:SCCF:11:1,2017-04-01T16:00:00Z,26.4679,-82.0631,1.74,35.0,1111122 
SCCF RECON,ioos:station:SCCF:11:1,2017-04-01T17:00:00Z,26.4679,-82.0631,1.83,35.06,1111122 
SCCF RECON,ioos:station:SCCF:11:1,2017-04-01T18:00:00Z,26.4679,-82.0631,1.95,35.01,1111122 
SCCF RECON,ioos:station:SCCF:11:1,2017-04-01T19:00:00Z,26.4679,-82.0631,2.06,34.91,1111122 
SCCF RECON,ioos:station:SCCF:11:1,2017-04-01T20:00:00Z,26.4679,-82.0631,2.128,34.91,1111122 
SCCF RECON,ioos:station:SCCF:11:1,2017-04-01T21:00:00Z,26.4679,-82.0631,2.15,34.97,1111122 
SCCF RECON,ioos:station:SCCF:11:1,2017-04-01T22:00:00Z,26.4679,-82.0631,2.1,34.95,1111122 
SCCF RECON,ioos:station:SCCF:11:1,2017-04-01T23:00:00Z,26.4679,-82.0631,2.0,35.0,1111122 
SCCF RECON,ioos:station:SCCF:11:1,2017-04-02T00:00:00Z,26.4679,-82.0631,1.88,35.04,1111122 
SCCF RECON,ioos:station:SCCF:11:1,2017-04-02T01:00:00Z,26.4679,-82.0631,1.76,35.05,1111122 
SCCF RECON,ioos:station:SCCF:11:1,2017-04-02T02:00:00Z,26.4679,-82.0631,1.635,35.06,1111122 
SCCF RECON,ioos:station:SCCF:11:1,2017-04-02T03:00:00Z,26.4679,-82.0631,1.52,35.07,1111122 
SCCF RECON,ioos:station:SCCF:11:1,2017-04-02T04:00:00Z,26.4679,-82.0631,1.42,35.08,1111122 
SCCF RECON,ioos:station:SCCF:11:1,2017-04-02T05:00:00Z,26.4679,-82.0631,1.38,35.05,1111122 
SCCF RECON,ioos:station:SCCF:11:1,2017-04-02T06:00:00Z,26.4679,-82.0631,1.42,35.04,1111122 
SCCF RECON,ioos:station:SCCF:11:1,2017-04-02T07:00:00Z,26.4679,-82.0631,1.55,35.05,1111122 
SCCF RECON,ioos:station:SCCF:11:1,2017-04-02T08:00:00Z,26.4679,-82.0631,1.679,35.03,1111122 
SCCF RECON,ioos:station:SCCF:11:1,2017-04-02T09:00:00Z,26.4679,-82.0631,1.77,35.04,1111122 
SCCF RECON,ioos:station:SCCF:11:1,2017-04-02T10:00:00Z,26.4679,-82.0631,1.85,35.04,1111122 
SCCF RECON,ioos:station:SCCF:11:1,2017-04-02T11:00:00Z,26.4679,-82.0631,1.909,35.04,1111122 
SCCF RECON,ioos:station:SCCF:11:1,2017-04-02T12:00:00Z,26.4679,-82.0631,1.9,35.02,1111122 
SCCF RECON,ioos:station:SCCF:11:1,2017-04-02T13:00:00Z,26.4679,-82.0631,1.86,35.02,1111122 
SCCF RECON,ioos:station:SCCF:11:1,2017-04-02T14:00:00Z,26.4679,-82.0631,1.83,35.01,1111122 
SCCF RECON,ioos:station:SCCF:11:1,2017-04-02T15:00:00Z,26.4679,-82.0631,1.82,35.02,1111122 
SCCF RECON,ioos:station:SCCF:11:1,2017-04-02T16:00:00Z,26.4679,-82.0631,1.811,35.0,1111122 
SCCF RECON,ioos:station:SCCF:11:1,2017-04-02T17:00:00Z,26.4679,-82.0631,1.827,35.0,1111122 
SCCF RECON,ioos:station:SCCF:11:1,2017-04-02T18:00:00Z,26.4679,-82.0631,1.86,35.01,1111122 
SCCF RECON,ioos:station:SCCF:11:1,2017-04-02T19:00:00Z,26.4679,-82.0631,1.95,34.93,1111122 
SCCF RECON,ioos:station:SCCF:11:1,2017-04-02T20:00:00Z,26.4679,-82.0631,2.04,34.99,1111122 
SCCF RECON,ioos:station:SCCF:11:1,2017-04-02T21:00:00Z,26.4679,-82.0631,2.08,35.01,1111122 
SCCF RECON,ioos:station:SCCF:11:1,2017-04-02T22:00:00Z,26.4679,-82.0631,2.09,35.04,1111122 
SCCF RECON,ioos:station:SCCF:11:1,2017-04-02T23:00:00Z,26.4679,-82.0631,2.06,35.14,1111122 
SCCF RECON,ioos:station:SCCF:11:1,2017-04-03T00:00:00Z,26.4679,-82.0631,2.07,35.04,1111122 
SCCF RECON,ioos:station:SCCF:11:1,2017-04-03T01:00:00Z,26.4679,-82.0631,1.97,35.0,1111122 
SCCF RECON,ioos:station:SCCF:11:1,2017-04-03T02:00:00Z,26.4679,-82.0631,1.824,35.01,1111122 
SCCF RECON,ioos:station:SCCF:11:1,2017-04-03T03:00:00Z,26.4679,-82.0631,1.7,35.02,1111122 
SCCF RECON,ioos:station:SCCF:11:1,2017-04-03T04:00:00Z,26.4679,-82.0631,1.59,35.03,1111122 
SCCF RECON,ioos:station:SCCF:11:1,2017-04-03T05:00:00Z,26.4679,-82.0631,1.49,35.07,1111122 
SCCF RECON,ioos:station:SCCF:11:1,2017-04-03T06:00:00Z,26.4679,-82.0631,1.44,35.08,1111122 
SCCF RECON,ioos:station:SCCF:11:1,2017-04-03T07:00:00Z,26.4679,-82.0631,1.45,35.04,1111122 
SCCF RECON,ioos:station:SCCF:11:1,2017-04-03T08:00:00Z,26.4679,-82.0631,1.55,35.04,1111122 
SCCF RECON,ioos:station:SCCF:11:1,2017-04-03T09:00:00Z,26.4679,-82.0631,1.67,35.06,1111122 
SCCF RECON,ioos:station:SCCF:11:1,2017-04-03T10:00:00Z,26.4679,-82.0631,1.78,35.06,1111122 
SCCF RECON,ioos:station:SCCF:11:1,2017-04-03T11:00:00Z,26.4679,-82.0631,1.86,35.12,1111122 
SCCF RECON,ioos:station:SCCF:11:1,2017-04-03T12:00:00Z,26.4679,-82.0631,1.92,35.15,1111122 
SCCF RECON,ioos:station:SCCF:11:1,2017-04-03T13:00:00Z,26.4679,-82.0631,1.95,35.22,1111122 
SCCF RECON,ioos:station:SCCF:11:1,2017-04-03T14:00:00Z,26.4679,-82.0631,1.96,35.22,1111122 
SCCF RECON,ioos:station:SCCF:11:1,2017-04-03T15:00:00Z,26.4679,-82.0631,1.95,35.21,1111122 
SCCF RECON,ioos:station:SCCF:11:1,2017-04-03T16:00:00Z,26.4679,-82.0631,1.918,35.22,1111122 
SCCF RECON,ioos:station:SCCF:11:1,2017-04-03T17:00:00Z,26.4679,-82.0631,1.9,35.22,1111122 
SCCF RECON,ioos:station:SCCF:11:1,2017-04-03T18:00:00Z,26.4679,-82.0631,1.88,35.27,1111122 
SCCF RECON,ioos:station:SCCF:11:1,2017-04-03T19:00:00Z,26.4679,-82.0631,1.901,35.27,1111122 
SCCF RECON,ioos:station:SCCF:11:1,2017-04-03T20:00:00Z,26.4679,-82.0631,1.95,35.24,1111122 
SCCF RECON,ioos:station:SCCF:11:1,2017-04-03T21:00:00Z,26.4679,-82.0631,2.019,35.22,1111122 
SCCF RECON,ioos:station:SCCF:11:1,2017-04-03T22:00:00Z,26.4679,-82.0631,2.08,35.23,1111122 
SCCF RECON,ioos:station:SCCF:11:1,2017-04-03T23:00:00Z,26.4679,-82.0631,2.09,35.22,1111122 
SCCF RECON,ioos:station:SCCF:11:1,2017-04-04T00:00:00Z,26.4679,-82.0631,2.07,35.22,1111122 
SCCF RECON,ioos:station:SCCF:11:1,2017-04-04T01:00:00Z,26.4679,-82.0631,2.04,35.21,1111122 
SCCF RECON,ioos:station:SCCF:11:1,2017-04-04T02:00:00Z,26.4679,-82.0631,1.99,35.19,1111122 
SCCF RECON,ioos:station:SCCF:11:1,2017-04-04T03:00:00Z,26.4679,-82.0631,1.89,35.22,1111122 
SCCF RECON,ioos:station:SCCF:11:1,2017-04-04T04:00:00Z,26.4679,-82.0631,1.78,35.21,1111122 
SCCF RECON,ioos:station:SCCF:11:1,2017-04-04T05:00:00Z,26.4679,-82.0631,1.678,35.21,1111122 
SCCF RECON,ioos:station:SCCF:11:1,2017-04-04T06:00:00Z,26.4679,-82.0631,1.57,35.2,1111122 
SCCF RECON,ioos:station:SCCF:11:1,2017-04-04T07:00:00Z,26.4679,-82.0631,1.51,35.21,1111122 
SCCF RECON,ioos:station:SCCF:11:1,2017-04-04T08:00:00Z,26.4679,-82.0631,1.5,35.22,1111122 
SCCF RECON,ioos:station:SCCF:11:1,2017-04-04T09:00:00Z,26.4679,-82.0631,1.58,35.21,1111122 
SCCF RECON,ioos:station:SCCF:11:1,2017-04-04T10:00:00Z,26.4679,-82.0631,1.69,35.21,1111122 
SCCF RECON,ioos:station:SCCF:11:1,2017-04-04T11:00:00Z,26.4679,-82.0631,1.78,35.21,1111122 
SCCF RECON,ioos:station:SCCF:11:1,2017-04-04T12:00:00Z,26.4679,-82.0631,1.85,35.21,1111122 
SCCF RECON,ioos:station:SCCF:11:1,2017-04-04T13:00:00Z,26.4679,-82.0631,1.913,35.19,1111122 
SCCF RECON,ioos:station:SCCF:11:1,2017-04-04T14:00:00Z,26.4679,-82.0631,1.974,35.18,1111122 
SCCF RECON,ioos:station:SCCF:11:1,2017-04-04T15:00:00Z,26.4679,-82.0631,2.01,35.18,1111122 
SCCF RECON,ioos:station:SCCF:11:1,2017-04-04T16:00:00Z,26.4679,-82.0631,2.02,35.18,1111122 
SCCF RECON,ioos:station:SCCF:11:1,2017-04-04T17:00:00Z,26.4679,-82.0631,2.002,35.19,1111122 
SCCF RECON,ioos:station:SCCF:11:1,2017-04-04T18:00:00Z,26.4679,-82.0631,1.96,35.2,1111122 
SCCF RECON,ioos:station:SCCF:11:1,2017-04-04T19:00:00Z,26.4679,-82.0631,1.91,35.19,1111122 
SCCF RECON,ioos:station:SCCF:11:1,2017-04-04T20:00:00Z,26.4679,-82.0631,1.87,35.17,1111122 
SCCF RECON,ioos:station:SCCF:11:1,2017-04-04T21:00:00Z,26.4679,-82.0631,1.858,35.13,1111122 
SCCF RECON,ioos:station:SCCF:11:1,2017-04-04T22:00:00Z,26.4679,-82.0631,1.91,35.12,1111122 
SCCF RECON,ioos:station:SCCF:11:1,2017-04-04T23:00:00Z,26.4679,-82.0631,1.99,35.11,1111122 
SCCF RECON,ioos:station:SCCF:11:1,2017-04-05T00:00:00Z,26.4679,-82.0631,2.07,35.13,1111122 
SCCF RECON,ioos:station:SCCF:11:1,2017-04-05T01:00:00Z,26.4679,-82.0631,2.099,35.13,1111122 
SCCF RECON,ioos:station:SCCF:11:1,2017-04-05T02:00:00Z,26.4679,-82.0631,2.08,35.17,1111122 
SCCF RECON,ioos:station:SCCF:11:1,2017-04-05T03:00:00Z,26.4679,-82.0631,2.01,35.2,1111122 
SCCF RECON,ioos:station:SCCF:11:1,2017-04-05T04:00:00Z,26.4679,-82.0631,1.88,35.21,1111122 
SCCF RECON,ioos:station:SCCF:11:1,2017-04-05T05:00:00Z,26.4679,-82.0631,1.76,35.22,1111122 
SCCF RECON,ioos:station:SCCF:11:1,2017-04-05T06:00:00Z,26.4679,-82.0631,1.66,35.23,1111122 
SCCF RECON,ioos:station:SCCF:11:1,2017-04-05T07:00:00Z,26.4679,-82.0631,1.56,35.24,1111122 
SCCF RECON,ioos:station:SCCF:11:1,2017-04-05T08:00:00Z,26.4679,-82.0631,1.49,35.27,1111122 
SCCF RECON,ioos:station:SCCF:11:1,2017-04-05T09:00:00Z,26.4679,-82.0631,1.48,35.23,1111122 
SCCF RECON,ioos:station:SCCF:11:1,2017-04-05T10:00:00Z,26.4679,-82.0631,1.55,35.22,1111122 
SCCF RECON,ioos:station:SCCF:11:1,2017-04-05T11:00:00Z,26.4679,-82.0631,1.669,35.2,1111122 
SCCF RECON,ioos:station:SCCF:11:1,2017-04-05T12:00:00Z,26.4679,-82.0631,1.78,35.2,1111122 
SCCF RECON,ioos:station:SCCF:11:1,2017-04-05T13:00:00Z,26.4679,-82.0631,1.87,35.2,1111122 
SCCF RECON,ioos:station:SCCF:11:1,2017-04-05T14:00:00Z,26.4679,-82.0631,1.96,35.2,1111122 
SCCF RECON,ioos:station:SCCF:11:1,2017-04-05T15:00:00Z,26.4679,-82.0631,2.02,35.19,1111122 
SCCF RECON,ioos:station:SCCF:11:1,2017-04-05T16:00:00Z,26.4679,-82.0631,2.04,35.2,1111122 
SCCF RECON,ioos:station:SCCF:11:1,2017-04-05T17:00:00Z,26.4679,-82.0631,2.05,35.21,1111122 
SCCF RECON,ioos:station:SCCF:11:1,2017-04-05T18:00:00Z,26.4679,-82.0631,2.019,35.21,1111122 
SCCF RECON,ioos:station:SCCF:11:1,2017-04-05T19:00:00Z,26.4679,-82.0631,1.94,35.21,1111122 
SCCF RECON,ioos:station:SCCF:11:1,2017-04-05T20:00:00Z,26.4679,-82.0631,1.87,35.22,1111122 
SCCF RECON,ioos:station:SCCF:11:1,2017-04-05T21:00:00Z,26.4679,-82.0631,1.83,35.24,1111122 
SCCF RECON,ioos:station:SCCF:11:1,2017-04-05T22:00:00Z,26.4679,-82.0631,1.87,35.28,1111122 
SCCF RECON,ioos:station:SCCF:11:1,2017-04-05T23:00:00Z,26.4679,-82.0631,1.965,35.28,1111122 
SCCF RECON,ioos:station:SCCF:11:1,2017-04-06T00:00:00Z,26.4679,-82.0631,2.051,35.29,1111122 
SCCF RECON,ioos:station:SCCF:11:1,2017-04-06T01:00:00Z,26.4679,-82.0631,2.1,35.28,1111122 
SCCF RECON,ioos:station:SCCF:11:1,2017-04-06T02:00:00Z,26.4679,-82.0631,2.116,35.28,1111122 
SCCF RECON,ioos:station:SCCF:11:1,2017-04-06T03:00:00Z,26.4679,-82.0631,2.1,35.28,1111122 
SCCF RECON,ioos:station:SCCF:11:1,2017-04-06T04:00:00Z,26.4679,-82.0631,2.07,35.28,1111122 
SCCF RECON,ioos:station:SCCF:11:1,2017-04-06T05:00:00Z,26.4679,-82.0631,1.95,35.27,1111122 
SCCF RECON,ioos:station:SCCF:11:1,2017-04-06T06:00:00Z,26.4679,-82.0631,1.82,35.31,1111122 
SCCF RECON,ioos:station:SCCF:11:1,2017-04-06T07:00:00Z,26.4679,-82.0631,1.7,35.31,1111122 
SCCF RECON,ioos:station:SCCF:11:1,2017-04-06T08:00:00Z,26.4679,-82.0631,1.59,35.36,1111122 
SCCF RECON,ioos:station:SCCF:11:1,2017-04-06T09:00:00Z,26.4679,-82.0631,1.507,35.36,1111122 
SCCF RECON,ioos:station:SCCF:11:1,2017-04-06T10:00:00Z,26.4679,-82.0631,1.49,35.33,1111122 
SCCF RECON,ioos:station:SCCF:11:1,2017-04-06T11:00:00Z,26.4679,-82.0631,1.57,35.31,1111122 
SCCF RECON,ioos:station:SCCF:11:1,2017-04-06T12:00:00Z,26.4679,-82.0631,1.67,35.29,1111122 
SCCF RECON,ioos:station:SCCF:11:1,2017-04-06T13:00:00Z,26.4679,-82.0631,1.75,35.29,1111122 
SCCF RECON,ioos:station:SCCF:11:1,2017-04-06T14:00:00Z,26.4679,-82.0631,1.85,35.29,1111122 
SCCF RECON,ioos:station:SCCF:11:1,2017-04-06T15:00:00Z,26.4679,-82.0631,1.984,35.28,1111122 
SCCF RECON,ioos:station:SCCF:11:1,2017-04-06T16:00:00Z,26.4679,-82.0631,2.13,35.29,1111122 
SCCF RECON,ioos:station:SCCF:11:1,2017-04-06T17:00:00Z,26.4679,-82.0631,2.109,35.29,1111122 
SCCF RECON,ioos:station:SCCF:11:1,2017-04-06T18:00:00Z,26.4679,-82.0631,1.976,35.31,1111122 
SCCF RECON,ioos:station:SCCF:11:1,2017-04-06T19:00:00Z,26.4679,-82.0631,1.84,35.35,1111122 
SCCF RECON,ioos:station:SCCF:11:1,2017-04-06T20:00:00Z,26.4679,-82.0631,1.75,35.36,1111122 
SCCF RECON,ioos:station:SCCF:11:1,2017-04-06T21:00:00Z,26.4679,-82.0631,1.69,35.38,1111122 
SCCF RECON,ioos:station:SCCF:11:1,2017-04-06T22:00:00Z,26.4679,-82.0631,1.661,35.37,1111122 
SCCF RECON,ioos:station:SCCF:11:1,2017-04-06T23:00:00Z,26.4679,-82.0631,1.67,35.33,1111122 
SCCF RECON,ioos:station:SCCF:11:1,2017-04-07T00:00:00Z,26.4679,-82.0631,1.71,35.31,1111122 
SCCF RECON,ioos:station:SCCF:11:1,2017-04-07T01:00:00Z,26.4679,-82.0631,1.78,35.35,1111122 
SCCF RECON,ioos:station:SCCF:11:1,2017-04-07T02:00:00Z,26.4679,-82.0631,1.85,35.35,1111122 
SCCF RECON,ioos:station:SCCF:11:1,2017-04-07T03:00:00Z,26.4679,-82.0631,1.91,35.36,1111122 
SCCF RECON,ioos:station:SCCF:11:1,2017-04-07T04:00:00Z,26.4679,-82.0631,1.93,35.39,1111122 
SCCF RECON,ioos:station:SCCF:11:1,2017-04-07T05:00:00Z,26.4679,-82.0631,1.9,35.41,1111122 
SCCF RECON,ioos:station:SCCF:11:1,2017-04-07T06:00:00Z,26.4679,-82.0631,1.855,35.44,1111122 
SCCF RECON,ioos:station:SCCF:11:1,2017-04-07T07:00:00Z,26.4679,-82.0631,1.76,35.44,1111122 
SCCF RECON,ioos:station:SCCF:11:1,2017-04-07T08:00:00Z,26.4679,-82.0631,1.65,35.49,1111122 
SCCF RECON,ioos:station:SCCF:11:1,2017-04-07T09:00:00Z,26.4679,-82.0631,1.53,35.55,1111122 
SCCF RECON,ioos:station:SCCF:11:1,2017-04-07T10:00:00Z,26.4679,-82.0631,1.44,35.55,1111122 
SCCF RECON,ioos:station:SCCF:11:1,2017-04-07T11:00:00Z,26.4679,-82.0631,1.419,35.52,1111122 
SCCF RECON,ioos:station:SCCF:11:1,2017-04-07T12:00:00Z,26.4679,-82.0631,1.457,35.54,1111122 
SCCF RECON,ioos:station:SCCF:11:1,2017-04-07T13:00:00Z,26.4679,-82.0631,1.551,35.53,1111122 
SCCF RECON,ioos:station:SCCF:11:1,2017-04-07T14:00:00Z,26.4679,-82.0631,1.654,35.55,1111122 
SCCF RECON,ioos:station:SCCF:11:1,2017-04-07T15:00:00Z,26.4679,-82.0631,1.77,35.53,1111122 
SCCF RECON,ioos:station:SCCF:11:1,2017-04-07T16:00:00Z,26.4679,-82.0631,1.877,35.43,1111122 
SCCF RECON,ioos:station:SCCF:11:1,2017-04-07T17:00:00Z,26.4679,-82.0631,1.89,35.44,1111122 
SCCF RECON,ioos:station:SCCF:11:1,2017-04-07T18:00:00Z,26.4679,-82.0631,1.84,35.49,1111122 
SCCF RECON,ioos:station:SCCF:11:1,2017-04-07T19:00:00Z,26.4679,-82.0631,1.76,35.53,1111122 
SCCF RECON,ioos:station:SCCF:11:1,2017-04-07T20:00:00Z,26.4679,-82.0631,1.69,35.56,1111122 
SCCF RECON,ioos:station:SCCF:11:1,2017-04-07T21:00:00Z,26.4679,-82.0631,1.61,35.57,1111122 
SCCF RECON,ioos:station:SCCF:11:1,2017-04-07T22:00:00Z,26.4679,-82.0631,1.54,35.62,1111122 
SCCF RECON,ioos:station:SCCF:11:1,2017-04-07T23:00:00Z,26.4679,-82.0631,1.51,35.63,1111122 
SCCF RECON,ioos:station:SCCF:11:1,2017-04-08T00:00:00Z,26.4679,-82.0631,1.535,35.6,1111122 
SCCF RECON,ioos:station:SCCF:11:1,2017-04-08T01:00:00Z,26.4679,-82.0631,1.627,35.52,1111122 
SCCF RECON,ioos:station:SCCF:11:1,2017-04-08T02:00:00Z,26.4679,-82.0631,1.759,35.59,1111122 
SCCF RECON,ioos:station:SCCF:11:1,2017-04-08T03:00:00Z,26.4679,-82.0631,1.87,35.6,1111122 
SCCF RECON,ioos:station:SCCF:11:1,2017-04-08T04:00:00Z,26.4679,-82.0631,1.95,35.58,1111122 
SCCF RECON,ioos:station:SCCF:11:1,2017-04-08T05:00:00Z,26.4679,-82.0631,1.97,35.58,1111122 
SCCF RECON,ioos:station:SCCF:11:1,2017-04-08T06:00:00Z,26.4679,-82.0631,1.92,35.58,1111122 
SCCF RECON,ioos:station:SCCF:11:1,2017-04-08T07:00:00Z,26.4679,-82.0631,1.8,35.58,1111122 
SCCF RECON,ioos:station:SCCF:11:1,2017-04-08T08:00:00Z,26.4679,-82.0631,1.69,35.64,1111122 
SCCF RECON,ioos:station:SCCF:11:1,2017-04-08T09:00:00Z,26.4679,-82.0631,1.58,35.67,1111122 
SCCF RECON,ioos:station:SCCF:11:1,2017-04-08T10:00:00Z,26.4679,-82.0631,1.484,35.7,1111122 
SCCF RECON,ioos:station:SCCF:11:1,2017-04-08T11:00:00Z,26.4679,-82.0631,1.431,35.71,1111122 
SCCF RECON,ioos:station:SCCF:11:1,2017-04-08T12:00:00Z,26.4679,-82.0631,1.44,35.71,1111122 
SCCF RECON,ioos:station:SCCF:11:1,2017-04-08T13:00:00Z,26.4679,-82.0631,1.533,35.7,1111122 
SCCF RECON,ioos:station:SCCF:11:1,2017-04-08T14:00:00Z,26.4679,-82.0631,1.683,35.65,1111122 
SCCF RECON,ioos:station:SCCF:11:1,2017-04-08T15:00:00Z,26.4679,-82.0631,1.83,35.65,1111122 
SCCF RECON,ioos:station:SCCF:11:1,2017-04-08T16:00:00Z,26.4679,-82.0631,1.96,35.59,1111122 
SCCF RECON,ioos:station:SCCF:11:1,2017-04-08T17:00:00Z,26.4679,-82.0631,2.02,35.58,1111122 
SCCF RECON,ioos:station:SCCF:11:1,2017-04-08T18:00:00Z,26.4679,-82.0631,1.99,35.56,1111122 
SCCF RECON,ioos:station:SCCF:11:1,2017-04-08T19:00:00Z,26.4679,-82.0631,1.882,35.65,1111122 
SCCF RECON,ioos:station:SCCF:11:1,2017-04-08T20:00:00Z,26.4679,-82.0631,1.77,35.72,1111122 
SCCF RECON,ioos:station:SCCF:11:1,2017-04-08T21:00:00Z,26.4679,-82.0631,1.681,35.74,1111122 
SCCF RECON,ioos:station:SCCF:11:1,2017-04-08T22:00:00Z,26.4679,-82.0631,1.6,35.73,1111122 
SCCF RECON,ioos:station:SCCF:11:1,2017-04-08T23:00:00Z,26.4679,-82.0631,1.54,35.8,1111122 
SCCF RECON,ioos:station:SCCF:11:1,2017-04-09T00:00:00Z,26.4679,-82.0631,1.524,35.8,1111122 
SCCF RECON,ioos:station:SCCF:11:1,2017-04-09T01:00:00Z,26.4679,-82.0631,1.581,35.75,1111122 
SCCF RECON,ioos:station:SCCF:11:1,2017-04-09T02:00:00Z,26.4679,-82.0631,1.71,35.74,1111122 
SCCF RECON,ioos:station:SCCF:11:1,2017-04-09T03:00:00Z,26.4679,-82.0631,1.83,35.8,1111122 
SCCF RECON,ioos:station:SCCF:11:1,2017-04-09T04:00:00Z,26.4679,-82.0631,1.95,35.78,1111122 
SCCF RECON,ioos:station:SCCF:11:1,2017-04-09T05:00:00Z,26.4679,-82.0631,2.01,35.78,1111122 
SCCF RECON,ioos:station:SCCF:11:1,2017-04-09T06:00:00Z,26.4679,-82.0631,1.98,35.79,1111122 
SCCF RECON,ioos:station:SCCF:11:1,2017-04-09T07:00:00Z,26.4679,-82.0631,1.869,35.72,1111122 
SCCF RECON,ioos:station:SCCF:11:1,2017-04-09T08:00:00Z,26.4679,-82.0631,1.74,35.78,1111122 
SCCF RECON,ioos:station:SCCF:11:1,2017-04-09T09:00:00Z,26.4679,-82.0631,1.64,35.82,1111122 
SCCF RECON,ioos:station:SCCF:11:1,2017-04-09T10:00:00Z,26.4679,-82.0631,1.541,35.84,1111122 
SCCF RECON,ioos:station:SCCF:11:1,2017-04-09T11:00:00Z,26.4679,-82.0631,1.46,35.86,1111122 
SCCF RECON,ioos:station:SCCF:11:1,2017-04-09T12:00:00Z,26.4679,-82.0631,1.428,35.86,1111122 
SCCF RECON,ioos:station:SCCF:11:1,2017-04-09T13:00:00Z,26.4679,-82.0631,1.48,35.84,1111122 
SCCF RECON,ioos:station:SCCF:11:1,2017-04-09T14:00:00Z,26.4679,-82.0631,1.63,35.8,1111122 
SCCF RECON,ioos:station:SCCF:11:1,2017-04-09T15:00:00Z,26.4679,-82.0631,1.773,35.73,1111122 
SCCF RECON,ioos:station:SCCF:11:1,2017-04-09T16:00:00Z,26.4679,-82.0631,1.87,35.77,1111122 
SCCF RECON,ioos:station:SCCF:11:1,2017-04-09T17:00:00Z,26.4679,-82.0631,1.97,35.73,1111122 
SCCF RECON,ioos:station:SCCF:11:1,2017-04-09T18:00:00Z,26.4679,-82.0631,2.04,35.71,1111122 
SCCF RECON,ioos:station:SCCF:11:1,2017-04-09T19:00:00Z,26.4679,-82.0631,2.0,35.69,1111122 
SCCF RECON,ioos:station:SCCF:11:1,2017-04-09T20:00:00Z,26.4679,-82.0631,1.93,35.71,1111122 
SCCF RECON,ioos:station:SCCF:11:1,2017-04-09T21:00:00Z,26.4679,-82.0631,1.82,35.77,1111122 
SCCF RECON,ioos:station:SCCF:11:1,2017-04-09T22:00:00Z,26.4679,-82.0631,1.71,35.81,1111122 
SCCF RECON,ioos:station:SCCF:11:1,2017-04-09T23:00:00Z,26.4679,-82.0631,1.62,35.84,1111122 
SCCF RECON,ioos:station:SCCF:11:1,2017-04-10T00:00:00Z,26.4679,-82.0631,1.58,35.78,1111122 
SCCF RECON,ioos:station:SCCF:11:1,2017-04-10T01:00:00Z,26.4679,-82.0631,1.591,35.75,1111122 
SCCF RECON,ioos:station:SCCF:11:1,2017-04-10T02:00:00Z,26.4679,-82.0631,1.71,35.79,1111122 
SCCF RECON,ioos:station:SCCF:11:1,2017-04-10T03:00:00Z,26.4679,-82.0631,1.84,35.76,1111122 
SCCF RECON,ioos:station:SCCF:11:1,2017-04-10T04:00:00Z,26.4679,-82.0631,1.94,35.72,1111122 
SCCF RECON,ioos:station:SCCF:11:1,2017-04-10T05:00:00Z,26.4679,-82.0631,2.02,35.69,1111122 
SCCF RECON,ioos:station:SCCF:11:1,2017-04-10T06:00:00Z,26.4679,-82.0631,2.07,35.74,1111122 
SCCF RECON,ioos:station:SCCF:11:1,2017-04-10T07:00:00Z,26.4679,-82.0631,2.041,35.74,1111122 
SCCF RECON,ioos:station:SCCF:11:1,2017-04-10T08:00:00Z,26.4679,-82.0631,1.94,35.76,1111122 
SCCF RECON,ioos:station:SCCF:11:1,2017-04-10T09:00:00Z,26.4679,-82.0631,1.824,35.82,1111122 
SCCF RECON,ioos:station:SCCF:11:1,2017-04-10T10:00:00Z,26.4679,-82.0631,1.727,35.85,1111122 
SCCF RECON,ioos:station:SCCF:11:1,2017-04-10T11:00:00Z,26.4679,-82.0631,1.64,35.85,1111122 
SCCF RECON,ioos:station:SCCF:11:1,2017-04-10T12:00:00Z,26.4679,-82.0631,1.58,35.89,1111122 
SCCF RECON,ioos:station:SCCF:11:1,2017-04-10T13:00:00Z,26.4679,-82.0631,1.62,35.84,1111122 
SCCF RECON,ioos:station:SCCF:11:1,2017-04-10T14:00:00Z,26.4679,-82.0631,1.772,35.84,1111122 
SCCF RECON,ioos:station:SCCF:11:1,2017-04-10T15:00:00Z,26.4679,-82.0631,1.954,35.81,1111122 
SCCF RECON,ioos:station:SCCF:11:1,2017-04-10T16:00:00Z,26.4679,-82.0631,2.07,35.72,1111122 
SCCF RECON,ioos:station:SCCF:11:1,2017-04-10T17:00:00Z,26.4679,-82.0631,2.15,35.7,1111122 
SCCF RECON,ioos:station:SCCF:11:1,2017-04-10T18:00:00Z,26.4679,-82.0631,2.17,35.71,1111122 
SCCF RECON,ioos:station:SCCF:11:1,2017-04-10T19:00:00Z,26.4679,-82.0631,2.1,35.67,1111122 
SCCF RECON,ioos:station:SCCF:11:1,2017-04-10T20:00:00Z,26.4679,-82.0631,1.98,35.8,1111122 
SCCF RECON,ioos:station:SCCF:11:1,2017-04-10T21:00:00Z,26.4679,-82.0631,1.86,35.82,1111122 
SCCF RECON,ioos:station:SCCF:11:1,2017-04-10T22:00:00Z,26.4679,-82.0631,1.74,35.89,1111122 
SCCF RECON,ioos:station:SCCF:11:1,2017-04-10T23:00:00Z,26.4679,-82.0631,1.64,35.89,1111122 
SCCF RECON,ioos:station:SCCF:11:1,2017-04-11T00:00:00Z,26.4679,-82.0631,1.55,35.9,1111122 
SCCF RECON,ioos:station:SCCF:11:1,2017-04-11T01:00:00Z,26.4679,-82.0631,1.53,35.86,1111122 
SCCF RECON,ioos:station:SCCF:11:1,2017-04-11T02:00:00Z,26.4679,-82.0631,1.58,35.83,1111122 
SCCF RECON,ioos:station:SCCF:11:1,2017-04-11T03:00:00Z,26.4679,-82.0631,1.7,35.8,1111122 
SCCF RECON,ioos:station:SCCF:11:1,2017-04-11T04:00:00Z,26.4679,-82.0631,1.829,35.77,1111122 
SCCF RECON,ioos:station:SCCF:11:1,2017-04-11T05:00:00Z,26.4679,-82.0631,1.93,35.78,1111122 
SCCF RECON,ioos:station:SCCF:11:1,2017-04-11T06:00:00Z,26.4679,-82.0631,2.0,35.75,1111122 
SCCF RECON,ioos:station:SCCF:11:1,2017-04-11T07:00:00Z,26.4679,-82.0631,2.01,35.79,1111122 
SCCF RECON,ioos:station:SCCF:11:1,2017-04-11T08:00:00Z,26.4679,-82.0631,1.957,35.74,1111122 
SCCF RECON,ioos:station:SCCF:11:1,2017-04-11T09:00:00Z,26.4679,-82.0631,1.84,35.87,1111122 
SCCF RECON,ioos:station:SCCF:11:1,2017-04-11T10:00:00Z,26.4679,-82.0631,1.75,35.86,1111122 
SCCF RECON,ioos:station:SCCF:11:1,2017-04-11T11:00:00Z,26.4679,-82.0631,1.68,35.92,1111122 
SCCF RECON,ioos:station:SCCF:11:1,2017-04-11T12:00:00Z,26.4679,-82.0631,1.64,35.92,1111122 
SCCF RECON,ioos:station:SCCF:11:1,2017-04-11T13:00:00Z,26.4679,-82.0631,1.66,35.91,1111122 
SCCF RECON,ioos:station:SCCF:11:1,2017-04-11T14:00:00Z,26.4679,-82.0631,1.76,35.43,1111122 
SCCF RECON,ioos:station:SCCF:11:1,2017-04-11T15:00:00Z,26.4679,-82.0631,1.91,35.21,1111122 
SCCF RECON,ioos:station:SCCF:11:1,2017-04-11T16:00:00Z,26.4679,-82.0631,2.03,35.04,1111122 
SCCF RECON,ioos:station:SCCF:11:1,2017-04-11T17:00:00Z,26.4679,-82.0631,2.13,35.33,1111122 
SCCF RECON,ioos:station:SCCF:11:1,2017-04-11T18:00:00Z,26.4679,-82.0631,2.2,35.28,1111122 